Satellite-Ground Cal/Val Region Overpasses Predictions

Prediction of Satellite NPP Overpassing Cal/Val Region: PacNW

Region Location: (Latitude: 10.00, Longitude: 139.50) to (Latitude: 22.70, Longitude: 165.60).

Table of predicted overpasses for the next 14.0 days since TLE Epoch: 7/29/2015
Interval Starting Time Starting Location Ending Time Ending Location
1 07/29/2015 03:53:13 ( 10.05, 142.40) 07/29/2015 03:56:41 ( 22.27, 139.51)
2 07/29/2015 14:43:35 ( 22.65, 165.00) 07/29/2015 14:47:10 ( 10.03, 162.00)
3 07/29/2015 16:25:05 ( 22.64, 139.62) 07/29/2015 16:25:13 ( 22.17, 139.50)
4 07/30/2015 03:34:09 ( 10.01, 147.17) 07/30/2015 03:37:45 ( 22.70, 144.16)
5 07/30/2015 16:06:02 ( 22.69, 144.39) 07/30/2015 16:09:38 ( 10.01, 141.38)
6 07/31/2015 03:15:07 ( 10.03, 151.93) 07/31/2015 03:18:42 ( 22.65, 148.93)
7 07/31/2015 15:46:59 ( 22.67, 149.14) 07/31/2015 15:50:34 ( 10.05, 146.15)
8 08/01/2015 02:56:04 ( 10.05, 156.68) 08/01/2015 02:59:39 ( 22.67, 153.69)
9 08/01/2015 15:27:57 ( 22.66, 153.90) 08/01/2015 15:31:32 ( 10.03, 150.90)
10 08/02/2015 02:37:01 ( 10.00, 161.45) 08/02/2015 02:40:37 ( 22.69, 158.44)
11 08/02/2015 15:08:53 ( 22.70, 158.67) 08/02/2015 15:12:29 ( 10.02, 155.66)
12 08/03/2015 02:18:43 ( 12.67, 165.60) 08/03/2015 02:21:33 ( 22.65, 163.21)
13 08/03/2015 03:59:28 ( 10.03, 140.83) 08/03/2015 04:01:05 ( 15.73, 139.51)
14 08/03/2015 14:49:51 ( 22.68, 163.42) 08/03/2015 14:53:27 ( 10.00, 160.41)
15 08/04/2015 03:40:26 ( 10.05, 145.58) 08/04/2015 03:44:01 ( 22.67, 142.58)
16 08/04/2015 14:33:53 ( 11.86, 165.59) 08/04/2015 14:34:24 ( 10.04, 165.18)
17 08/04/2015 16:12:19 ( 22.65, 142.80) 08/04/2015 16:15:54 ( 10.03, 139.80)
18 08/05/2015 03:21:22 ( 10.01, 150.35) 08/05/2015 03:24:58 ( 22.69, 147.34)
19 08/05/2015 15:53:15 ( 22.69, 147.56) 08/05/2015 15:56:51 ( 10.01, 144.56)
20 08/06/2015 03:02:20 ( 10.03, 155.10) 08/06/2015 03:05:55 ( 22.66, 152.11)
21 08/06/2015 15:34:13 ( 22.67, 152.32) 08/06/2015 15:37:48 ( 10.05, 149.32)
22 08/07/2015 02:43:17 ( 10.05, 159.85) 08/07/2015 02:46:52 ( 22.68, 156.86)
23 08/07/2015 15:15:10 ( 22.65, 157.07) 08/07/2015 15:18:45 ( 10.03, 154.08)
24 08/08/2015 02:24:14 ( 10.01, 164.62) 08/08/2015 02:27:50 ( 22.70, 161.61)
25 08/08/2015 14:56:07 ( 22.69, 161.84) 08/08/2015 14:59:43 ( 10.01, 158.83)
26 08/09/2015 03:46:41 ( 10.04, 144.00) 08/09/2015 03:50:16 ( 22.67, 141.00)
27 08/09/2015 14:38:13 ( 18.63, 165.60) 08/09/2015 14:40:39 ( 10.05, 163.60)
28 08/09/2015 16:18:34 ( 22.66, 141.22) 08/09/2015 16:20:34 ( 15.62, 139.51)
29 08/10/2015 03:27:38 ( 10.01, 148.77) 08/10/2015 03:31:14 ( 22.69, 145.76)
30 08/10/2015 15:59:32 ( 22.64, 145.97) 08/10/2015 16:03:07 ( 10.02, 142.97)
31 08/11/2015 03:08:36 ( 10.03, 153.52) 08/11/2015 03:12:11 ( 22.65, 150.52)


NCC Satellite Cal/Val Overpasses Prediction Service
